{"data":{"norad_id":61533,"epoch":"2026-09-21T12:15:32.097024Z","epoch_age_seconds":104695,"freshness":"FRESH","line1":"1 61533U 24184B   26264.51078816  .00000471  00000+0  87456-5 0  9999","line2":"2 61533  53.1590 350.9091 0000946  55.6915 304.4192 15.69702501111170","mean_motion":15.69702501,"eccentricity":9.46e-5,"inclination_deg":53.159,"raan_deg":350.9091,"arg_perigee_deg":55.6915,"mean_anomaly_deg":304.4192,"bstar":8.7456e-6,"rev_number":11117,"period_min":91.737128473875,"perigee_km":359.1108058319,"apogee_km":360.38561371359,"semimajor_km":6737.8852097727,"source":"CELESTRAK","updated_at":"2026-09-22T09:00:49.363697Z"}}